Terminal Aerodrome Forecast
Issued by NWS

Home | Current Version | Previous Version | Text Only | Print | Product List | Glossary On
Versions: 1 2 3 4 5 6 7 8 9 10 11 12 13
000
FTUS44 KOUN 180520
TAFCSM
TAF
KCSM 180520Z 1806/1906 20004KT 6SM BR SKC
      TEMPO 1808/1812 1SM BR
     FM181500 20010KT P6SM SCT250
     FM190000 16008KT P6SM SCT250=

USA.gov is the U.S. government's official web portal to all federal, state and local government web resources and services.